GW3084 Weather Reports


Display with metric or nautical units.
time (UTC)temp
F
wind
direction
speed
MPH
gust
MPH
rain 1hr
in
rain 24hr
in
rain mn
in
humidity
%
barometer
mb
20260507233030 44 186 3.0 13.0 0.00 0.00 0.00 71 1010.7
20260507232026 44 164 3.0 9.0 0.00 0.00 0.00 70 1010.8
20260507231023 44 172 4.0 9.0 0.00 0.00 0.00 69 1010.9
20260507230019 46 182 4.0 10.0 0.00 0.00 0.00 67 1010.8
20260507225016 46 168 4.0 9.0 0.00 0.00 0.00 66 1010.9
20260507224033 45 151 4.0 9.0 0.00 0.00 0.00 67 1010.9
20260507223029 44 164 3.0 10.0 0.00 0.00 0.00 68 1011.1
20260507222026 44 157 4.0 9.0 0.00 0.00 0.00 67 1011.2
20260507221022 45 188 3.0 9.0 0.00 0.00 0.00 65 1011.2
20260507220019 46 158 4.0 9.0 0.00 0.00 0.00 63 1011.1
20260507215016 47 155 3.0 10.0 0.00 0.00 0.00 60 1011.0
20260507214032 46 148 4.0 10.0 0.00 0.00 0.00 61 1011.0
20260507213029 47 167 3.0 9.0 0.00 0.00 0.00 61 1011.1
20260507212026 46 154 4.0 10.0 0.00 0.00 0.00 61 1011.2
20260507211021 45 166 4.0 9.0 0.00 0.00 0.00 61 1011.2
20260507210017 47 158 4.0 11.0 0.00 0.00 0.00 60 1011.4
20260507205033 48 180 5.0 11.0 0.00 0.00 0.00 58 1011.4
20260507204049 48 180 5.0 10.0 0.00 0.00 0.00 59 1011.5
20260507203026 46 145 4.0 11.0 0.00 0.00 0.00 62 1011.6
20260507202023 46 142 3.0 10.0 0.00 0.00 0.00 63 1011.7
20260507201039 47 133 4.0 9.0 0.00 0.00 0.00 61 1011.7
20260507200016 46 165 2.0 8.0 0.00 0.00 0.00 63 1011.7
20260507195053 46 186 3.0 7.0 0.00 0.00 0.00 62 1011.7
20260507194031 46 164 3.0 9.0 0.00 0.00 0.00 62 1011.8
20260507193026 48 145 3.0 9.0 0.00 0.00 0.00 61 1011.8
20260507192022 48 132 4.0 11.0 0.00 0.00 0.00 60 1011.7
20260507191019 46 164 3.0 8.0 0.00 0.00 0.00 63 1011.8
20260507190015 46 166 3.0 8.0 0.00 0.00 0.00 64 1011.8
20260507185032 46 139 3.0 9.0 0.00 0.00 0.00 65 1011.9
20260507184049 47 144 4.0 10.0 0.00 0.00 0.00 65 1011.9
20260507183026 47 132 3.0 10.0 0.00 0.00 0.00 66 1011.8
20260507182022 47 134 3.0 9.0 0.00 0.00 0.00 66 1012.1
20260507181019 47 125 3.0 8.0 0.00 0.00 0.00 66 1012.2
20260507180017 47 118 2.0 9.0 0.00 0.00 0.00 66 1012.4
20260507175034 47 157 3.0 8.0 0.00 0.00 0.00 64 1012.4
20260507174029 49 120 2.0 8.0 0.00 0.00 0.00 60 1012.4
20260507173026 52 141 2.0 7.0 0.00 0.00 0.00 51 1012.6
20260507172022 53 352 2.0 7.0 0.00 0.00 0.00 37 1012.7
20260507171019 53 184 1.0 4.0 0.00 0.00 0.00 37 1012.8
20260507170036 52 266 3.0 9.0 0.00 0.00 0.00 37 1012.9
20260507165034 52 248 1.0 4.0 0.00 0.00 0.00 38 1013.1
20260507164029 52 253 2.0 6.0 0.00 0.00 0.00 37 1013.2
20260507163026 52 265 3.0 9.0 0.00 0.00 0.00 36 1013.3
20260507162043 52 267 2.0 8.0 0.00 0.00 0.00 36 1013.4
20260507161041 53 311 4.0 9.0 0.00 0.00 0.00 35 1013.5
20260507160017 53 308 4.0 11.0 0.00 0.00 0.00 36 1013.7
20260507155033 52 286 4.0 10.0 0.00 0.00 0.00 36 1013.5
20260507154109 52 316 4.0 9.0 0.00 0.00 0.00 37 1013.5
20260507153026 51 288 4.0 13.0 0.00 0.00 0.00 37 1013.8
20260507152043 53 279 3.0 6.0 0.00 0.00 0.00 36 1013.7
20260507151021 53 283 3.0 8.0 0.00 0.00 0.00 36 1013.8
20260507150016 52 279 3.0 9.0 0.00 0.00 0.00 38 1013.9
20260507145034 49 290 4.0 14.0 0.00 0.00 0.00 39 1014.1
20260507144029 50 302 4.0 11.0 0.00 0.00 0.00 39 1014.1
20260507143027 51 270 3.0 7.0 0.00 0.00 0.00 38 1014.2
20260507142022 51 288 3.0 11.0 0.00 0.00 0.00 39 1014.3
20260507141020 50 273 5.0 11.0 0.00 0.00 0.00 39 1014.5
20260507140015 50 284 3.0 10.0 0.00 0.00 0.00 40 1014.4
20260507135032 49 288 4.0 10.0 0.00 0.00 0.00 42 1014.5
20260507134029 48 265 6.0 15.0 0.00 0.00 0.00 43 1014.5
20260507133025 48 274 5.0 9.0 0.00 0.00 0.00 44 1014.5
20260507132022 48 281 4.0 10.0 0.00 0.00 0.00 45 1014.5
20260507131019 47 276 4.0 9.0 0.00 0.00 0.00 47 1014.5
20260507130036 46 269 4.0 11.0 0.00 0.00 0.00 49 1014.5
20260507125033 45 277 3.0 10.0 0.00 0.00 0.00 50 1014.5
20260507124029 45 274 3.0 9.0 0.00 0.00 0.00 51 1014.4
20260507123047 43 267 3.0 8.0 0.00 0.00 0.00 54 1014.4
20260507122022 42 277 4.0 9.0 0.00 0.00 0.00 57 1014.3
20260507121018 39 283 3.0 7.0 0.00 0.00 0.00 62 1014.5
20260507120035 37 277 2.0 6.0 0.00 0.00 0.00 66 1014.5
20260507115032 37 268 3.0 7.0 0.00 0.00 0.00 66 1014.3
20260507114029 37 271 1.0 6.0 0.00 0.00 0.00 66 1014.1
20260507113025 37 277 1.0 6.0 0.00 0.00 0.00 67 1013.9
20260507112021 37 283 1.0 4.0 0.00 0.00 0.00 68 1013.9
20260507111018 36 275 1.0 4.0 0.00 0.00 0.00 70 1013.7
20260507110034 35 280 1.0 4.0 0.00 0.00 0.00 70 1013.6
20260507105031 35 283 0.0 3.0 0.00 0.00 0.00 70 1013.5
20260507104028 35 282 0.0 1.0 0.00 0.00 0.00 70 1013.5
20260507103025 36 286 0.0 2.0 0.00 0.00 0.00 69 1013.5
20260507102021 36 287 1.0 3.0 0.00 0.00 0.00 69 1013.5
20260507101017 37 277 1.0 3.0 0.00 0.00 0.00 68 1013.5
20260507100054 37 278 2.0 4.0 0.00 0.00 0.00 69 1013.6
20260507095030 36 282 1.0 6.0 0.00 0.00 0.00 69 1013.5
20260507094027 37 280 1.0 3.0 0.00 0.00 0.00 68 1013.5
20260507093022 37 276 1.0 3.0 0.00 0.00 0.00 68 1013.5
20260507092020 37 285 0.0 3.0 0.00 0.00 0.00 66 1013.5
20260507091055 38 280 1.0 7.0 0.00 0.00 0.00 66 1013.7
20260507090053 38 283 2.0 8.0 0.00 0.00 0.00 66 1013.7
20260507085049 38 276 1.0 4.0 0.00 0.00 0.00 66 1013.6
20260507084025 38 272 1.0 4.0 0.00 0.00 0.00 66 1013.5
20260507083022 38 277 1.0 3.0 0.00 0.00 0.00 67 1013.5
20260507082019 37 271 1.0 3.0 0.00 0.00 0.00 69 1013.5
20260507081037 36 272 0.0 2.0 0.00 0.00 0.00 70 1013.5
20260507080033 36 273 0.0 1.0 0.00 0.00 0.00 67 1013.5
20260507075029 37 0.0 0.0 0.00 0.00 0.00 67 1013.5
20260507074025 38 275 0.0 1.0 0.00 0.00 0.00 66 1013.6
20260507073022 38 264 0.0 1.0 0.00 0.00 0.00 66 1013.6
20260507072040 38 271 0.0 1.0 0.00 0.00 0.00 65 1013.7
20260507071016 38 271 0.0 1.0 0.00 0.00 0.00 65 1013.8
20260507070032 38 0.0 0.0 0.00 0.00 0.00 64 1013.9
20260507065029 39 0.0 0.0 0.00 0.00 0.00 62 1014.0
20260507064107 40 311 0.0 1.0 0.00 0.00 0.00 62 1014.1
20260507063022 40 308 0.0 1.0 0.00 0.00 0.00 61 1014.0
20260507062020 41 300 0.0 2.0 0.00 0.00 0.00 60 1014.1
20260507061016 41 284 0.0 4.0 0.00 0.00 0.00 59 1014.2
20260507060030 42 299 1.0 6.0 0.00 0.00 0.00 59 1014.3
20260507055026 42 283 1.0 3.0 0.00 0.00 0.00 59 1014.4
20260507054023 42 287 1.0 3.0 0.00 0.00 0.00 58 1014.5
20260507053040 42 283 1.0 3.0 0.00 0.00 0.00 57 1014.5
20260507052058 43 286 1.0 4.0 0.00 0.00 0.00 56 1014.6
20260507051033 43 282 1.0 3.0 0.00 0.00 0.00 55 1014.5
20260507050031 43 283 1.0 6.0 0.00 0.00 0.00 55 1014.7
20260507045027 43 280 1.0 3.0 0.00 0.00 0.00 54 1014.7
20260507044023 43 292 1.0 3.0 0.00 0.00 0.00 54 1014.6
20260507043020 43 301 1.0 4.0 0.00 0.00 0.00 54 1014.5
20260507042016 43 298 1.0 2.0 0.00 0.00 0.00 53 1014.7
20260507041115 43 301 1.0 6.0 0.00 0.00 0.00 53 1014.5
20260507040031 43 310 1.0 3.0 0.00 0.00 0.00 53 1014.5
20260507035026 43 302 2.0 6.0 0.00 0.00 0.00 53 1014.6
20260507034022 43 297 1.0 2.0 0.00 0.00 0.00 53 1014.6
20260507033038 43 292 1.0 4.0 0.00 0.00 0.00 53 1014.5
20260507032054 44 285 1.0 6.0 0.00 0.00 0.00 53 1014.5
20260507031032 44 295 1.0 4.0 0.00 0.00 0.00 53 1014.5
20260507030028 44 293 1.0 6.0 0.00 0.00 0.00 53 1014.5
20260507025024 44 286 2.0 4.0 0.00 0.00 0.00 53 1014.4
20260507024021 44 300 1.0 4.0 0.00 0.00 0.00 53 1014.4
20260507023018 44 304 1.0 4.0 0.00 0.00 0.00 53 1014.2
20260507022035 44 296 1.0 6.0 0.00 0.00 0.00 52 1014.2
20260507021051 45 302 1.0 7.0 0.00 0.00 0.00 51 1014.0
20260507020048 45 298 1.0 8.0 0.00 0.00 0.00 50 1013.9
20260507015024 46 299 2.0 8.0 0.00 0.00 0.00 49 1013.8
20260507014041 46 302 2.0 4.0 0.00 0.00 0.00 49 1013.6
20260507013018 46 296 2.0 4.0 0.00 0.00 0.00 49 1013.5
20260507012035 47 298 2.0 7.0 0.00 0.00 0.00 48 1013.5
20260507011031 47 314 2.0 9.0 0.00 0.00 0.00 47 1013.4
20260507010028 48 305 2.0 7.0 0.00 0.00 0.00 46 1013.3
20260507005024 48 308 2.0 8.0 0.00 0.00 0.00 45 1013.1
20260507004021 49 307 3.0 9.0 0.00 0.00 0.00 45 1013.0
20260507003018 49 292 2.0 8.0 0.00 0.00 0.00 44 1012.9
20260507002035 50 292 3.0 9.0 0.00 0.00 0.00 44 1012.9
20260507001229 50 318 3.0 8.0 0.00 0.00 0.00 44 1012.8
20260507000019 49 311 3.0 11.0 0.00 0.00 0.00 47 1012.8
20260506235016 46 293 2.0 13.0 0.00 0.00 0.00 64 1012.7
20260506234033 45 139 1.0 3.0 0.00 0.00 0.00 76 1012.8